TimeMDT,TemperatureF,Dew PointF,Humidity,Sea Level PressureIn,VisibilityMPH,Wind Direction,Wind SpeedMPH,Gust SpeedMPH,PrecipitationIn,Events,Conditions,WindDirDegrees,DateUTC
12:53 AM,17.1,8.1,68,30.02,10.0,North,3.5,-,N/A,,Clear,350,2013-03-22 06:53:00
1:53 AM,15.1,7.0,70,30.01,10.0,Calm,Calm,-,N/A,,Clear,0,2013-03-22 07:53:00
2:53 AM,10.9,6.1,81,30.03,10.0,Calm,Calm,-,N/A,,Clear,0,2013-03-22 08:53:00
3:53 AM,10.9,6.1,81,30.02,10.0,Calm,Calm,-,N/A,,Partly Cloudy,0,2013-03-22 09:53:00
4:53 AM,9.0,3.9,80,30.03,10.0,South,4.6,-,N/A,,Clear,190,2013-03-22 10:53:00
5:53 AM,7.0,3.0,84,30.03,10.0,SE,5.8,-,N/A,,Clear,140,2013-03-22 11:53:00
6:53 AM,7.0,3.0,84,30.04,10.0,Calm,Calm,-,N/A,,Clear,0,2013-03-22 12:53:00
7:53 AM,7.0,3.0,84,30.07,10.0,SSW,3.5,-,N/A,,Clear,200,2013-03-22 13:53:00
8:53 AM,9.0,5.0,84,30.09,10.0,Calm,Calm,-,N/A,,Clear,0,2013-03-22 14:53:00
9:53 AM,15.1,9.0,77,30.07,10.0,Calm,Calm,-,N/A,,Clear,0,2013-03-22 15:53:00
10:53 AM,18.0,10.0,71,30.07,10.0,SSE,4.6,-,N/A,,Clear,160,2013-03-22 16:53:00
11:53 AM,23.0,10.9,60,30.05,6.0,ENE,3.5,-,0.00,Snow,Light Snow,70,2013-03-22 17:53:00
12:14 PM,21.2,12.2,68,29.89,6.0,SE,4.6,-,0.00,Snow,Light Snow,130,2013-03-22 18:14:00
12:21 PM,23.0,12.2,63,29.89,9.0,SSE,4.6,-,0.00,Snow,Light Snow,160,2013-03-22 18:21:00
12:53 PM,24.1,10.0,55,30.04,10.0,Variable,3.5,-,0.00,,Mostly Cloudy,0,2013-03-22 18:53:00
1:53 PM,25.0,10.9,55,30.05,10.0,South,3.5,-,N/A,,Overcast,180,2013-03-22 19:53:00
2:53 PM,26.1,7.0,44,30.05,9.0,WNW,9.2,-,N/A,,Scattered Clouds,290,2013-03-22 20:53:00
3:53 PM,26.1,5.0,41,30.06,10.0,WNW,4.6,16.1,N/A,,Mostly Cloudy,300,2013-03-22 21:53:00
4:13 PM,24.8,14.0,64,29.90,1.8,NW,12.7,21.9,0.00,Snow,Light Snow,320,2013-03-22 22:13:00
4:20 PM,24.8,12.2,59,29.90,1.2,West,9.2,-,0.00,Snow,Light Snow,280,2013-03-22 22:20:00
4:25 PM,24.8,10.4,54,29.90,3.0,WNW,4.6,-,0.00,Snow,Light Snow,300,2013-03-22 22:25:00
4:46 PM,24.8,6.8,46,29.91,10.0,NW,11.5,-,0.00,,Overcast,310,2013-03-22 22:46:00
4:53 PM,25.0,7.0,46,30.10,10.0,WNW,10.4,-,0.00,,Overcast,300,2013-03-22 22:53:00
5:53 PM,24.1,12.0,60,30.14,10.0,NNW,8.1,-,N/A,,Overcast,340,2013-03-22 23:53:00
6:53 PM,23.0,10.9,60,30.16,10.0,West,6.9,-,N/A,,Overcast,280,2013-03-23 00:53:00
7:53 PM,21.9,14.0,72,30.18,10.0,West,6.9,-,N/A,,Mostly Cloudy,280,2013-03-23 01:53:00
8:27 PM,21.2,15.8,80,29.98,4.0,NNW,11.5,-,0.00,Snow,Light Snow,340,2013-03-23 02:27:00
8:30 PM,21.2,15.8,80,29.98,1.8,North,6.9,-,0.00,Snow,Light Snow,350,2013-03-23 02:30:00
8:34 PM,19.4,15.8,86,29.98,0.8,NNE,9.2,-,0.00,Snow,Light Snow,30,2013-03-23 02:34:00
8:43 PM,19.4,15.8,86,29.99,0.5,North,10.4,-,0.00,Fog-Snow,Snow,10,2013-03-23 02:43:00
8:49 PM,19.4,14.0,80,29.99,1.0,North,8.1,-,0.00,Snow,Light Snow,10,2013-03-23 02:49:00
8:53 PM,19.9,14.0,78,30.21,3.0,North,5.8,-,0.00,Snow,Light Snow,360,2013-03-23 02:53:00
9:53 PM,19.9,10.0,65,30.20,10.0,North,6.9,-,0.00,,Overcast,360,2013-03-23 03:53:00
10:53 PM,19.0,9.0,65,30.21,10.0,NNE,10.4,-,N/A,,Overcast,30,2013-03-23 04:53:00
11:53 PM,18.0,10.0,71,30.21,9.0,North,6.9,-,N/A,,Overcast,360,2013-03-23 05:53:00